Погода в Гашуне

Россия / Республика Калмыкия     46°12′31″N   45°05′28″E
темп.,
°C
ветер,
м/с
пор.,
м/с
влажн.,
%
обл.,
%
осадки,
мм/ч
давл.,
гПа
погр.,
м
8 августа, пн
пн800:00+25юв22320 0.0 101211
03:00+24св34320 0.0 101241
06:00+24всв37320 0.0 1013155
09:00+30в45210 0.0 1014947
12:00+33в47185 0.0 10143364
15:00+33юв561970 0.0 10133102
18:00+32ю65221 0.0 10141039
21:00+27ююз510315 0.0 1015271
9 августа, вт
вт900:00+24ююз35385 0.0 101678
03:00+23зсз34390 0.0 101556
06:00+24сз22395 0.0 101657
09:00+30з112350 0.0 1015861
12:00+33вюв35195 0.0 10152969
15:00+35в55163 0.0 10133647
18:00+34вюв35174 0.0 10133139
21:00+29юв48240 0.0 1013155
10 августа, ср
ср1000:00+27ююз33290 0.0 101324
03:00+25юв12330 0.0 101311
06:00+26вюв33320 0.0 101348
09:00+32вюв57230 0.0 10131299
12:00+35вюв89200 0.0 10123128
15:00+37вюв89182 0.0 10103540
18:00+35юв810190 0.0 10103039
21:00+30юв712330 0.0 1011488
11 августа, чт
чт1100:00+26вюв410461 0.0 1010259
03:00+25всв4953100 0.0 1010196
06:00+26всв6144281 0.0 1011455
09:00+33вюв8132721 0.0 10111561
12:00+38вюв1112169 0.0 10093530
15:00+37вюв11121684 0.0 10093551
18:00+35вюв10102078 0.0 10102759
21:00+31вюв81327100 0.0 1012758
12 августа, пт
пт1200:00+28в512355 0.0 1012316
03:00+26всв411413 0.0 1013246
06:00+26в5123779 0.0 1013346
09:00+33вюв7102693 0.0 10141130
12:00+38вюв10111433 0.0 10133173
15:00+37вюв11111446 0.0 10132866
18:00+35вюв911180 0.0 10142370
21:00+30вюв612270 0.0 1015392